FW6550 Weather Reports


time (UTC)temp
F
wind
direction
speed
knots
gust
knots
rain 1hr
in
rain 24hr
in
rain mn
in
humidity
%
barometer
mb
20260508180252 69 0 0.0 2.6 0.00 0.00 0.00 66 1015.7
20260508170112 70 0 0.0 4.3 0.00 0.00 0.00 63 1017.0
20260508164534 70 0 0.0 0.9 0.00 0.00 0.00 63 1017.2
20260508163031 69 0 0.0 2.6 0.00 0.00 0.00 64 1017.4
20260508161534 69 0 0.9 3.5 0.00 0.00 0.00 61 1017.5
20260508160036 69 90 0.0 3.5 0.00 0.00 0.00 65 1017.3
20260508154534 69 17 0.9 3.5 0.00 0.00 0.00 63 1017.3
20260508153042 68 95 0.0 3.5 0.00 0.00 0.00 65 1017.7
20260508151532 66 5 0.9 7.0 0.00 0.00 0.00 67 1017.8
20260508150037 65 24 0.9 5.2 0.00 0.00 0.00 71 1017.8
20260508144539 63 0 0.0 4.3 0.00 0.00 0.00 75 1017.8
20260508143037 62 0 0.9 3.5 0.00 0.00 0.00 76 1017.5
20260508141532 62 28 1.7 5.2 0.00 0.00 0.00 77 1017.6
20260508140036 61 26 0.9 7.0 0.00 0.00 0.00 78 1017.9
20260508134534 60 0 0.0 3.5 0.00 0.00 0.00 80 1018.2
20260508133054 60 0 0.0 1.7 0.00 0.00 0.00 80 1018.3
20260508131532 59 0 0.0 1.7 0.00 0.00 0.00 80 1018.3
20260508130035 59 47 0.0 2.6 0.00 0.00 0.00 80 1018.2
20260508124534 58 0 0.0 1.7 0.00 0.01 0.00 80 1018.3
20260508123043 57 0 0.0 1.7 0.00 0.01 0.00 79 1018.1
20260508121532 56 0 0.0 2.6 0.00 0.01 0.00 78 1018.1
20260508120037 56 0 0.0 1.7 0.00 0.01 0.00 76 1017.9
20260508114536 55 0 0.0 2.6 0.00 0.08 0.00 74 1017.5
20260508113034 55 0 0.0 0.9 0.00 0.08 0.00 73 1017.2
20260508111534 55 0 0.0 1.7 0.00 0.08 0.00 73 1016.7
20260508110032 55 0 0.0 0.0 0.00 0.08 0.00 75 1016.7